Showing default

CARBONITE 1, 40718

Orbit data source: Space-Track

CARBONITE 1, 40718 is a payload satellite owned by SSTL (Astrium) (UK) in SSO that was launched on Fri, 10 Jul 2015 UTC via a PSLV-XL launch vehicle from the Sirharikota (SRI). Payload-class satellites include a variety of spacecraft equipped with specific instruments for various scientific and technological missions. These include communications satellites like Starlink; space stations such as the ISS; scientific satellites like the Hubble; Earth observation satellites from companies like Planet Labs, Umbra, and HawkEye 360; GPS; miniature CubeSats for education and research; and military/defense satellites.

Loading next visibility...
Identifier
40718, 2015-032D
Orbit
SSO
Country
Flag of UKUK
Related business
Manufacturer
SSTL (Astrium)
Mission
Operational Commercial Imaging
Bus & Motor
CBNT, Unknown motor
Mass
91 kg wet, 91 kg dry
Launch date (UTC)
2015-07-10 (11 years ago)
Launch vehicle
PSLV-XL
Launch site
Sirharikota (SRI)
Object type
Payload
Rocket body
Debris
Shape & HBR
Box + Cyl, 0.5 m
Radar Cross Section
0.780 m², Medium (>0.1 m² and < 1m²)

Expand to show TLE details & history
Last TLE update: 9 hours ago

TLE from 9 hours ago
0 CARBONITE 1
1 40718U 15032D   26145.58768451  .00001738  00000-0  21713-3 0  9999
2 40718  97.6506 324.6033 0014849  14.7980 345.3666 14.83505875585996
Epoch: 2026-05-25T14:06Z
TLE epoch observation values (Epoch: 2026-05-25T14:06:15.941Z)
Latitude
-0.00006°
Longitude
-130.13644°
Altitude
611.26 km
Speed
7.559 km/s
True Right ascension
21h 38m 24s
True Declination
0° 00' 00"
Sunlit
Object was in daylight at epoch
Visualization orbit readout
Latitude
Unknown
Longitude
Unknown
Altitude
Unknown
Speed
Unknown
Apparent Right ascension
Unknown
Apparent Declination
Unknown
Sunlit
N/A
Visualization observer readout
Local Sidereal Time
08:18:39
Azimuth
Unknown
Elevation
Unknown
Doppler factor
Unknown
Orbital elements
Apogee altitude
625.689 km
Perigee altitude
604.92 km
Semi-major axis
6,993.442 km
Eccentricity
0.00148
Inclination
97.6506°
RAAN
324.6033°
Arg. of periapsis
14.798°
True anomaly
345.32354°
Mean anomaly
345.3666°
Eccentric anomaly
345.34508°
Mean motion
3.71113 °/min
Orbital period
97.01 mins
BSTAR
0.00021713
Loading maneuver chart data...
Computing Atmospheric mass density...
Loading historical data...
Loading historical data...
Loading historical data...
Loading historical data...
Loading historical data...
Loading historical data...
Loading historical data...
Other satellites on launch #32 in the year 2015 (2015-07-10 UTC)

Documentation

Showing up to 5 results
|